Location: Bushey
(51.6333°N, 0.3667°W)
Time: 02:01:10
(UTC+00:00)

Cosmos 1271 Rocket - Pass Details

Date: 03 March 2021
Orbit: 498 x 544 km, 81.2° (Epoch: 11 April)

Event Time Altitude Azimuth Distance (km) Brightness Sun altitude
Rises 18:27:26 0° 343° (NNW) 2,604 6.5 -7.3°
Reaches altitude 10° 18:29:35 10° 339° (NNW) 1,715 5.6 -7.6°
Maximum altitude 18:33:15 54° 262° (W) 614 3.5 -8.2°
Drops below altitude 10° 18:36:55 10° 185° (S) 1,708 5.4 -8.8°
Sets 18:39:03 0° 180° (S) 2,592 6.3 -9.1°
